Date String (YYYY-MM-DD hh:mm:ss) UTC,Instrument flags,absolute air pressure of the measurement (hPa),sample flow rate (lpm),inlet stack bypass flow (lpm),air temperature of the measurement (°C),ambient temperature measured by the external sensor (°C),aerosol sample conditioner tube jacket temperature (°C),OPC LED temperature (°C),internal box temperature (°C),relative humidity of the measurement (%),span deviation,mass concentration of particles derived from Lorenz-Mie calculation of OPC scattering (μg/m³),mass concentration of particles derived from Lorenz-Mie calculation of OPC scattering (μg/m³),mass concentration of particles derived from Lorenz-Mie calculation of OPC scattering (μg/m³)
DateTimeUTC,F1_M11,P_M11,Q1_M11,Q2_M11,T1_M11,T2_M11,T3_M11,T4_M11,T5_M11,U1_M11,ZSPAN_M11,X0_M11,X2_M11,X1_M11
2023-10-01 20:00:00,SystemResetWarning,0825.4,5.00,000.00,028.3,027.2,000.0,036.6,030.2,14.8,0000.0,0008.90,0003.78,0003.36
2023-10-01 20:01:00,SystemResetWarning,0825.3,4.98,000.00,028.3,025.7,000.0,036.6,030.1,15.1,0000.0,0009.52,0003.77,0003.36
2023-10-01 20:02:00,SystemResetWarning,0825.3,5.01,000.00,028.2,024.4,000.0,036.5,029.8,14.9,0000.0,0008.90,0003.76,0003.35
2023-10-01 20:03:00,SystemResetWarning,0825.2,5.01,000.00,028.1,024.6,000.0,036.5,029.8,14.2,0000.0,0009.28,0003.75,0003.33
2023-10-01 20:04:00,SystemResetWarning,0825.3,4.99,000.00,028.1,024.9,000.0,036.5,029.7,14.0,0000.0,0009.35,0003.75,0003.32
2023-10-01 20:05:00,SystemResetWarning,0825.3,5.00,000.00,028.1,025.3,000.0,036.5,029.7,13.6,0000.0,0009.43,0003.75,0003.31
2023-10-01 20:06:00,SystemResetWarning,0825.3,5.01,000.00,028.1,025.7,000.0,036.5,029.8,13.9,0000.0,0009.11,0003.71,0003.29
2023-10-01 20:07:00,SystemResetWarning,0825.3,5.01,000.00,028.1,026.1,000.0,036.5,029.8,14.3,0000.0,0008.99,0003.70,0003.27
2023-10-01 20:08:00,SystemResetWarning,0825.3,5.00,000.00,028.1,026.4,000.0,036.6,029.9,14.1,0000.0,0008.89,0003.66,0003.26
2023-10-01 20:09:00,SystemResetWarning,0825.3,5.00,000.00,028.1,026.7,000.0,036.6,030.0,13.9,0000.0,0008.89,0003.66,0003.25
2023-10-01 20:10:00,SystemResetWarning,0825.3,5.00,000.00,028.2,027.0,000.0,036.6,030.1,13.7,0000.0,0008.50,0003.58,0003.23
2023-10-01 20:11:00,SystemResetWarning,0825.2,5.00,000.00,028.2,027.2,000.0,036.6,030.1,14.2,0000.0,0008.00,0003.56,0003.23
2023-10-01 20:12:00,SystemResetWarning,0825.3,4.99,000.00,028.3,026.8,000.0,036.6,030.2,14.4,0000.0,0007.08,0003.54,0003.22
2023-10-01 20:13:00,SystemResetWarning,0825.3,4.99,000.00,028.3,025.1,000.0,036.6,030.0,13.7,0000.0,0007.34,0003.56,0003.23
2023-10-01 20:14:00,SystemResetWarning,0825.2,5.00,000.00,028.2,024.3,000.0,036.5,029.8,13.9,0000.0,0006.33,0003.59,0003.23
2023-10-01 20:15:00,SystemResetWarning,0825.2,5.02,000.00,028.1,024.6,000.0,036.5,029.7,14.2,0000.0,0006.41,0003.60,0003.25
2023-10-01 20:16:00,SystemResetWarning,0825.2,5.00,000.00,028.1,024.9,000.0,036.5,029.7,14.1,0000.0,0006.70,0003.56,0003.24
2023-10-01 20:17:00,SystemResetWarning,0825.3,5.00,000.00,028.1,025.4,000.0,036.5,029.7,14.2,0000.0,0007.40,0003.58,0003.25
2023-10-01 20:18:00,SystemResetWarning,0825.2,5.00,000.00,028.1,025.8,000.0,036.5,029.8,14.0,0000.0,0007.44,0003.57,0003.26
2023-10-01 20:19:00,SystemResetWarning,0825.2,5.00,000.00,028.1,026.2,000.0,036.5,029.9,13.5,0000.0,0007.50,0003.61,0003.26
2023-10-01 20:20:00,SystemResetWarning,0825.2,5.00,000.00,028.1,026.5,000.0,036.5,029.9,13.4,0000.0,0007.53,0003.61,0003.27
2023-10-01 20:21:00,SystemResetWarning,0825.2,4.99,000.00,028.2,026.8,000.0,036.6,030.0,13.5,0000.0,0007.61,0003.66,0003.27
2023-10-01 20:22:00,SystemResetWarning,0825.2,5.00,000.00,028.2,027.0,000.0,036.6,030.1,13.5,0000.0,0007.75,0003.68,0003.28
2023-10-01 20:23:00,SystemResetWarning,0825.2,5.00,000.00,028.3,027.2,000.0,036.6,030.2,13.5,0000.0,0007.83,0003.70,0003.28
2023-10-01 20:24:00,SystemResetWarning,0825.2,4.99,000.00,028.3,026.4,000.0,036.6,030.2,13.2,0000.0,0008.04,0003.71,0003.28
2023-10-01 20:25:00,SystemResetWarning,0825.2,5.01,000.00,028.2,024.8,000.0,036.6,029.9,13.8,0000.0,0008.28,0003.67,0003.26
2023-10-01 20:26:00,SystemResetWarning,0825.1,5.01,000.00,028.2,024.4,000.0,036.5,029.8,14.0,0000.0,0008.20,0003.67,0003.25
2023-10-01 20:27:00,SystemResetWarning,0825.1,5.00,000.00,028.1,024.7,000.0,036.5,029.7,13.6,0000.0,0008.68,0003.65,0003.25
2023-10-01 20:28:00,SystemResetWarning,0825.1,4.99,000.00,028.0,025.1,000.0,036.5,029.7,13.4,0000.0,0008.13,0003.63,0003.24
2023-10-01 20:29:00,SystemResetWarning,0825.0,4.99,000.00,028.0,025.5,000.0,036.5,029.7,14.0,0000.0,0008.18,0003.63,0003.24
2023-10-01 20:30:00,SystemResetWarning,0825.0,5.00,000.00,028.0,025.9,000.0,036.5,029.8,13.8,0000.0,0008.25,0003.65,0003.23
2023-10-01 20:31:00,SystemResetWarning,0825.0,5.01,000.00,028.1,026.3,000.0,036.5,029.9,13.6,0000.0,0008.25,0003.62,0003.22
2023-10-01 20:32:00,SystemResetWarning,0825.0,4.99,000.00,028.1,026.6,000.0,036.6,030.0,13.7,0000.0,0008.27,0003.60,0003.20
2023-10-01 20:33:00,SystemResetWarning,0825.0,4.99,000.00,028.2,026.9,000.0,036.6,030.0,13.6,0000.0,0008.19,0003.60,0003.20
2023-10-01 20:34:00,SystemResetWarning,0825.0,5.01,000.00,028.2,027.1,000.0,036.6,030.1,13.8,0000.0,0008.19,0003.62,0003.20
2023-10-01 20:35:00,SystemResetWarning,0825.0,5.00,000.00,028.3,026.8,000.0,036.6,030.1,13.5,0000.0,0008.05,0003.61,0003.19
2023-10-01 20:36:00,SystemResetWarning,0825.0,5.00,000.00,028.2,025.1,000.0,036.5,030.0,13.3,0000.0,0007.65,0003.61,0003.19
2023-10-01 20:37:00,SystemResetWarning,0824.9,5.01,000.00,028.2,024.5,000.0,036.5,029.8,13.2,0000.0,0007.51,0003.60,0003.19
2023-10-01 20:38:00,SystemResetWarning,0824.9,5.01,000.00,028.1,024.8,000.0,036.5,029.7,13.0,0000.0,0006.62,0003.60,0003.18
2023-10-01 20:39:00,SystemResetWarning,0824.9,5.00,000.00,028.1,025.2,000.0,036.5,029.7,13.4,0000.0,0007.03,0003.62,0003.18
2023-10-01 20:40:00,SystemResetWarning,0824.9,5.00,000.00,028.1,025.6,000.0,036.5,029.7,13.7,0000.0,0007.64,0003.64,0003.18
2023-10-01 20:41:00,SystemResetWarning,0824.9,5.00,000.00,028.1,026.0,000.0,036.5,029.8,13.6,0000.0,0007.61,0003.62,0003.19
2023-10-01 20:42:00,SystemResetWarning,0824.9,4.99,000.00,028.1,026.4,000.0,036.5,029.9,14.0,0000.0,0008.02,0003.64,0003.20
2023-10-01 20:43:00,SystemResetWarning,0824.9,5.00,000.00,028.1,026.7,000.0,036.6,030.0,14.3,0000.0,0007.96,0003.64,0003.20
2023-10-01 20:44:00,SystemResetWarning,0824.9,4.99,000.00,028.2,026.9,000.0,036.6,030.1,14.1,0000.0,0007.96,0003.64,0003.21
2023-10-01 20:45:00,SystemResetWarning,0824.9,4.99,000.00,028.2,027.2,000.0,036.6,030.2,14.1,0000.0,0007.97,0003.62,0003.20
2023-10-01 20:46:00,SystemResetWarning,0824.9,5.00,000.00,028.3,026.3,000.0,036.6,030.1,14.0,0000.0,0007.98,0003.61,0003.21
2023-10-01 20:47:00,SystemResetWarning,0824.9,5.00,000.00,028.2,024.7,000.0,036.5,029.9,14.4,0000.0,0007.91,0003.59,0003.20
2023-10-01 20:48:00,SystemResetWarning,0824.9,5.01,000.00,028.2,024.6,000.0,036.5,029.8,14.3,0000.0,0007.93,0003.59,0003.21
2023-10-01 20:49:00,SystemResetWarning,0824.9,5.00,000.00,028.1,024.9,000.0,036.5,029.7,14.4,0000.0,0008.35,0003.60,0003.21
2023-10-01 20:50:00,SystemResetWarning,0824.9,5.00,000.00,028.1,025.3,000.0,036.5,029.7,14.8,0000.0,0008.24,0003.58,0003.20
2023-10-01 20:51:00,SystemResetWarning,0825.0,5.00,000.00,028.1,025.7,000.0,036.5,029.8,14.6,0000.0,0007.60,0003.55,0003.19
2023-10-01 20:52:00,SystemResetWarning,0824.9,5.00,000.00,028.1,026.1,000.0,036.5,029.9,14.5,0000.0,0007.57,0003.54,0003.18
2023-10-01 20:53:00,SystemResetWarning,0824.9,5.00,000.00,028.1,026.5,000.0,036.6,030.0,14.4,0000.0,0006.97,0003.52,0003.18
2023-10-01 20:54:00,SystemResetWarning,0824.9,5.00,000.00,028.2,026.8,000.0,036.6,030.0,14.3,0000.0,0007.04,0003.51,0003.18
2023-10-01 20:55:00,SystemResetWarning,0824.9,5.00,000.00,028.2,027.0,000.0,036.6,030.1,14.7,0000.0,0007.33,0003.51,0003.18
2023-10-01 20:56:00,SystemResetWarning,0824.9,4.99,000.00,028.3,026.4,000.0,036.6,030.1,15.1,0000.0,0007.24,0003.52,0003.17
2023-10-01 20:57:00,SystemResetWarning,0824.9,5.00,000.00,028.2,024.8,000.0,036.5,029.9,14.5,0000.0,0007.10,0003.51,0003.17
2023-10-01 20:58:00,SystemResetWarning,0824.9,5.01,000.00,028.1,024.5,000.0,036.5,029.8,14.0,0000.0,0007.10,0003.52,0003.16
2023-10-01 20:59:00,SystemResetWarning,0824.9,5.01,000.00,028.1,024.8,000.0,036.5,029.7,14.6,0000.0,0007.08,0003.51,0003.15
